Home   Weather   Küsnacht   Past weeks

Flag for Switzerland Past Weather in Küsnacht, Zurich, Switzerland — Yesterday and Last 2 Weeks

Now
59 °F

Cool.


Feels Like: 59 °F
Forecast: 51 / 68 °F
Wind: 5 mph from South

Location: Zuerich-Fluntern

Current Time: Sep 30, 2016 at 10:29:39 AM

Latest Report: Sep 30, 2016 at 9:00 AM


Visibility: N/A

Pressure: 30.08 "Hg

Humidity: 68%

Dew Point: 49 °F

Location of KüsnachtLocation

Past Weather in Küsnacht — Graph

°F

Küsnacht Temperature Yesterday

Maximum temperature yesterday: 73 °F (at 5:00 PM)
Minimum temperature yesterday: 54 °F (at 7:00 AM)
Average temperature yesterday: 63 °F

High & Low Weather Summary for the Past Weeks

 TemperatureHumidityPressure
High73 °F (Sep 29, 5:00 PM)100% (Sep 20, 3:00 AM)30.46 "Hg (Sep 20, 3:00 AM)
Low46 °F (Sep 22, 5:00 AM)44% (Sep 29, 5:00 PM)29.85 "Hg (Sep 15, 9:00 AM)
Average58 °F81%30.13 "Hg
* Reported Sep 15 9:00 AM — Sep 30 9:00 AM, Küsnacht, Weather by CustomWeather, © 2016

Note: Actual official high and low records may vary slightly from our data, if they occured in-between our weather recording intervals... More about our weather records

Advertising

Küsnacht Weather History for the Previous 24 Hours

Scroll right to see more
 ConditionsComfort  
Time TempWeatherWind HumidityBarometerVisibility
9:00 AM
Fri, Sep 30
59 °FCool.5 mph68%30.08 "HgN/A
8:00 AM58 °FCool.3 mph71%30.08 "HgN/A
7:00 AM60 °FCool.7 mph60%30.07 "HgN/A
6:00 AM60 °FRefreshingly cool.5 mph60%30.07 "HgN/A
5:00 AM61 °FRefreshingly cool.6 mph59%30.07 "HgN/A
4:00 AM62 °FRefreshingly cool.8 mph56%30.07 "HgN/A
3:00 AM63 °FMild.8 mph56%30.08 "HgN/A
2:00 AM63 °FMild.9 mph56%30.09 "HgN/A
1:00 AM61 °FCool.5 mph70%30.11 "HgN/A
12:00 AM64 °FMild.7 mph57%30.11 "HgN/A
11:00 PM
Thu, Sep 29
64 °FMild.8 mph63%30.11 "HgN/A
10:00 PM64 °FMild.7 mph56%30.11 "HgN/A
9:00 PM65 °FMild.7 mph61%30.11 "HgN/A
8:00 PM65 °FMild.5 mph59%30.10 "HgN/A
7:00 PM69 °FMild.8 mph49%30.10 "HgN/A
6:00 PM71 °FMild.7 mph49%30.10 "HgN/A
5:00 PM73 °FMild.7 mph44%30.11 "HgN/A
4:00 PM73 °FMild.9 mph47%30.12 "HgN/A
3:00 PM72 °FMild.9 mph45%30.14 "HgN/A
2:00 PM71 °FMild.7 mph56%30.17 "HgN/A
1:00 PM68 °FMild.6 mph57%30.22 "HgN/A
12:00 PM66 °FMild.5 mph66%30.24 "HgN/A
11:00 AM63 °FMild.5 mph73%30.27 "HgN/A
10:00 AM59 °FCool.2 mph79%30.30 "HgN/A
Weather by CustomWeather, © 2016

See weather overviewHow to use our weather pages